In Rescue
 
Open Full Screen Window  High Contrast Mode
Wind Gusting 00 knots
07
November 29, 2022 10:16 AM EST
Weather Information
Wind Direction
  170 °
Wind Speed
  07 kt (8 mph)
Wind Gust
  00 kt (0 mph)
Altimeter
30.05 in
Visibility
10 SM
Temperature
08° C
46° F
Dewpoint
05° C
41° F
Humidity
82%
1hr Rain Fall
00.00 in.
24hr Rain Fall
00.00 in.
Sky Condition
Overcast @ 3,400 ft
VFR

METAR KMRT 291516Z AUTO 17007KT 10SM OVC034 08/05 A3005 RMK AO2 T00800050

FAA Disclaimer: The data displayed is for advisory purposes only and is not to be used for flight planning or operations.